sat.trackr.live / text

‹ back to catalog

STARLINK-5514

NORAD 57248 · 2023-094AG

PAYLOAD ACTIVE UNKNOWN

§ Identity

Operator
Country
US
Launch date
2023-07-07
Launch site
AFWTR
Launch vehicle
Mass (kg)
RCS (m²)

Purposes: comms

External: N2YO · Heavens-Above · Gunter

§ Orbital elements

Epoch: 2026-09-20T17:42:58.567104Z

Period
94.27 min
Inclination
43.0045°
Eccentricity
0.0002077
Mean motion
15.27575765 rev/d
Perigee alt
481.6 km
Apogee alt
484.5 km
Semi-major
6,861.2 km
B*
3.9851e-5
RAAN
358.0533°
Arg perigee
272.2002°
Mean anomaly
87.8612°
Rev number
17,707

§ Raw data

STARLINK-55141 57248U 23094AG  26263.73817786  .00000834  00000+0  39851-4 0  99942 57248  43.0045 358.0533 0002077 272.2002  87.8612 15.27575765177076

JSON: /api/v1/satellites/57248 · /tle

For live sub-satellite position, see the globe view (requires WebGL).

§ Visibility from observer

Set your observer location to see the next 7 days of passes ≥ 10°. The values pass through the URL so the page stays shareable.

No JS? Fill the form by hand. The geolocation button needs JavaScript.